Fairbanks, AK

1:11 PM AKDT on May 29, 2017 (GMT -0800)
Fairbanks International

Weather History for PAFA - April, 2014

Change the Weather History Date:

Saturday, April 26, 2014

  Actual Average Record
Temperature  
Mean Temperature 45 °F 40 °F  
Max Temperature 61 °F 52 °F 69 °F (1994)
Min Temperature 29 °F 29 °F 4 °F (1924)
Degree Days  
Heating Degree Days 20 25  
Month to date heating degree days 852 880  
Since 1 July heating degree days 11820 12930  
Cooling Degree Days 0 0  
Month to date cooling degree days 0 0  
Year to date cooling degree days 0 0  
Moisture  
Dew Point 24 °F    
Average Humidity 46    
Maximum Humidity 82    
Minimum Humidity 10    
Precipitation  
Precipitation 0.00 in 0.01 in 0.92 in (2002)
Month to date precipitation 0.20 0.25  
Year to date precipitation 1.03 1.50  
Snow  
Snow 0.00 in 0.00 in 4.40 in (2002)
Month to date snowfall 2.9 2.6  
Since 1 July snowfall 48.9 63.8  
Snow Depth 0.00 in    
Sea Level Pressure  
Sea Level Pressure 29.46 in    
Wind  
Wind Speed 4 mph (NE)    
Max Wind Speed 15 mph    
Max Gust Speed -    
Visibility 10 miles    
Events      
T = Trace of Precipitation, MM = Missing Value Source: NWS Daily Summary

Daily Weather History Graph

Daily Weather History Graph

Search for Another Location

Airport or City:

Trip Planner

Search our weather history database for the weather conditions in past years. The results will help you decide how hot, cold, wet, or windy it might be!

Date:

Astronomy

Apr. 26, 2014 Rise Set
Actual Time 5:35 AM AKDT 10:04 PM AKDT
Civil Twilight 4:29 AM AKDT 11:12 PM AKDT
Nautical Twilight 2:21 AM AKDT 1:16 AM AKDT
Astronomical Twilight Sun does not set Sun does not set
Moon 5:12 AM AKDT (4/26) 6:49 PM AKDT (4/26)
Length of Visible Light 18h 43m
Length of Day
16h 28m
Waning Crescent, 7% of the Moon is Illuminated
Apr 26
Waning Crescent
Apr 28
New
May 6
First Quarter
May 14
Full
May 21
Last Quarter

Hourly Weather History & Observations

Time (AKDT) Temp. Windchill Dew Point Humidity Pressure Visibility Wind Dir Wind Speed Gust Speed Precip Events Conditions
12:53 AM 37.0 °F - 28.0 °F 70% 29.51 in 10.0 mi Calm Calm - N/A   Scattered Clouds
1:53 AM 35.1 °F 30.1 °F 26.1 °F 70% 29.51 in 10.0 mi ENE 5.8 mph - N/A   Partly Cloudy
2:53 AM 30.9 °F 25.2 °F 25.0 °F 79% 29.52 in 10.0 mi NE 5.8 mph - N/A   Partly Cloudy
3:53 AM 30.9 °F - 25.0 °F 79% 29.52 in 10.0 mi Calm Calm - N/A   Partly Cloudy
4:53 AM 30.0 °F 26.5 °F 25.0 °F 82% 29.51 in 10.0 mi NE 3.5 mph - N/A   Partly Cloudy
5:53 AM 30.0 °F - 25.0 °F 82% 29.52 in 10.0 mi Calm Calm - N/A   Partly Cloudy
6:53 AM 32.0 °F 27.5 °F 26.1 °F 79% 29.50 in 10.0 mi NNE 4.6 mph - N/A   Scattered Clouds
7:53 AM 36.0 °F - 27.0 °F 70% 29.50 in 10.0 mi Calm Calm - N/A   Mostly Cloudy
8:53 AM 43.0 °F 38.8 °F 26.1 °F 51% 29.49 in 10.0 mi NE 6.9 mph - N/A   Mostly Cloudy
9:53 AM 46.0 °F 41.4 °F 27.0 °F 47% 29.48 in 10.0 mi ENE 9.2 mph - N/A   Mostly Cloudy
10:53 AM 48.9 °F - 28.0 °F 44% 29.47 in 10.0 mi East 5.8 mph - N/A   Mostly Cloudy
11:53 AM 51.1 °F - 27.0 °F 39% 29.46 in 10.0 mi ENE 6.9 mph - N/A   Mostly Cloudy
12:53 PM 54.0 °F - 25.0 °F 33% 29.46 in 10.0 mi NE 5.8 mph - N/A   Scattered Clouds
1:53 PM 55.0 °F - 24.1 °F 30% 29.45 in 10.0 mi Calm Calm - N/A   Scattered Clouds
2:53 PM 57.0 °F - 21.9 °F 26% 29.44 in 10.0 mi East 3.5 mph - N/A   Scattered Clouds
3:53 PM 57.9 °F - 16.0 °F 19% 29.43 in 10.0 mi ESE 5.8 mph - N/A   Mostly Cloudy
4:53 PM 59.0 °F - 18.0 °F 20% 29.41 in 10.0 mi Variable 3.5 mph - N/A   Mostly Cloudy
5:53 PM 60.1 °F - 19.0 °F 20% 29.40 in 10.0 mi ENE 4.6 mph - N/A   Mostly Cloudy
6:53 PM 60.1 °F - 19.0 °F 20% 29.39 in 10.0 mi Calm Calm - N/A   Mostly Cloudy
7:53 PM 57.0 °F - 25.0 °F 29% 29.39 in 10.0 mi NE 15.0 mph - N/A   Mostly Cloudy
8:53 PM 55.0 °F - 24.1 °F 30% 29.40 in 10.0 mi ENE 11.5 mph - N/A   Mostly Cloudy
9:53 PM 48.0 °F - 26.1 °F 42% 29.41 in 10.0 mi NE 8.1 mph - N/A   Mostly Cloudy
10:53 PM 46.9 °F - 25.0 °F 42% 29.42 in 10.0 mi NNE 4.6 mph - N/A   Mostly Cloudy
11:53 PM 46.0 °F 43.9 °F 23.0 °F 40% 29.42 in 10.0 mi NNE 4.6 mph - N/A   Mostly Cloudy